This is the latest recevied weather packets stored in our database for station/object DR0T. If no packets are shown the sender has not sent any weather packets the latest 10 day(s).
| Time | Temp. | Humidity | Pressure | Rain* | Wind** | Luminosity | Snow |
|---|---|---|---|---|---|---|---|
| 1777644751 | 20° C | 38% | 1026 hPa | 0 mm | - | - | - |
| 1777644450 | 20° C | 36% | 1026.1 hPa | 0 mm | - | - | - |
| 1777644148 | 20.56° C | 37% | 1026.2 hPa | 0 mm | - | - | - |
| 1777643849 | 20.56° C | 38% | 1026.1 hPa | 0 mm | - | - | - |
| 1777643546 | 20.56° C | 38% | 1026.2 hPa | 0 mm | - | - | - |
| 1777643246 | 20.56° C | 37% | 1026.3 hPa | 0 mm | - | - | - |
| 1777642943 | 20° C | 38% | 1026.2 hPa | 0 mm | - | - | - |
| 1777642644 | 19.44° C | 37% | 1026.4 hPa | 0 mm | - | - | - |
| 1777642340 | 18.89° C | 35% | 1026.3 hPa | 0 mm | - | - | - |
| 1777642039 | 20° C | 36% | 1026.4 hPa | 0 mm | - | - | - |
| 1777641738 | 20° C | 38% | 1026.5 hPa | 0 mm | - | - | - |
| 1777641437 | 20° C | 37% | 1026.6 hPa | 0 mm | - | - | - |
| 1777641155 | 20° C | 38% | 1026.5 hPa | 0 mm | - | - | - |
| 1777640856 | 20.56° C | 37% | 1026.5 hPa | 0 mm | - | - | - |
| 1777640557 | 20° C | 38% | 1026.6 hPa | 0 mm | - | - | - |
| 1777640251 | 18.89° C | 38% | 1026.6 hPa | 0 mm | - | - | - |
| 1777639952 | 20° C | 37% | 1026.7 hPa | 0 mm | - | - | - |
| 1777639649 | 18.89° C | 38% | 1026.7 hPa | 0 mm | - | - | - |
| 1777639348 | 19.44° C | 37% | 1026.8 hPa | 0 mm | - | - | - |
| 1777639046 | 18.89° C | 37% | 1026.8 hPa | 0 mm | - | - | - |
| 1777638745 | 19.44° C | 37% | 1026.9 hPa | 0 mm | - | - | - |
| 1777638444 | 18.33° C | 38% | 1027 hPa | 0 mm | - | - | - |
| 1777638149 | 18.33° C | 37% | 1027 hPa | 0 mm | - | - | - |
| 1777637842 | 17.78° C | 38% | 1027.1 hPa | 0 mm | - | - | - |
| 1777637540 | 18.33° C | 37% | 1027.2 hPa | 0 mm | - | - | - |
* Rain latest hour (hover to see other rain measurements)
** Current wind speed in m/s (hover to see current wind gust speed)